TimeMDT,TemperatureF,Dew PointF,Humidity,Sea Level PressureIn,VisibilityMPH,Wind Direction,Wind SpeedMPH,Gust SpeedMPH,PrecipitationIn,Events,Conditions,WindDirDegrees,DateUTC
12:53 AM,48.9,46.9,93,29.63,1.8,Calm,Calm,-,N/A,,Clear,0,2013-06-08 06:53:00
1:08 AM,48.2,46.4,93,29.80,3.0,Calm,Calm,-,N/A,,Clear,0,2013-06-08 07:08:00
1:23 AM,46.4,44.6,93,29.80,1.8,Calm,Calm,-,N/A,,Clear,0,2013-06-08 07:23:00
1:37 AM,46.4,46.4,100,29.79,3.0,NNW,3.5,-,N/A,,Clear,330,2013-06-08 07:37:00
1:53 AM,46.9,46.0,97,29.62,9.0,Calm,Calm,-,N/A,,Scattered Clouds,0,2013-06-08 07:53:00
2:53 AM,48.9,46.9,93,29.64,10.0,NW,10.4,-,0.00,Rain,Light Rain,310,2013-06-08 08:53:00
3:14 AM,50.0,48.2,94,29.86,2.0,WNW,5.8,-,0.10,Rain,Heavy Rain,300,2013-06-08 09:14:00
3:37 AM,50.0,48.2,94,29.86,4.0,NW,5.8,-,0.19,Rain,Rain,310,2013-06-08 09:37:00
3:53 AM,51.1,48.0,89,29.68,6.0,WNW,6.9,-,0.23,Rain,Light Rain,290,2013-06-08 09:53:00
4:53 AM,48.9,46.0,90,29.68,10.0,North,8.1,-,0.06,Rain,Light Rain,350,2013-06-08 10:53:00
5:53 AM,50.0,45.0,83,29.68,10.0,Variable,5.8,-,0.01,,Mostly Cloudy,0,2013-06-08 11:53:00
6:53 AM,52.0,45.0,77,29.69,10.0,WNW,5.8,-,N/A,,Clear,300,2013-06-08 12:53:00
7:53 AM,55.0,46.0,72,29.70,10.0,NW,6.9,-,N/A,,Clear,310,2013-06-08 13:53:00
8:53 AM,57.9,44.1,60,29.72,10.0,WNW,16.1,29.9,N/A,,Clear,290,2013-06-08 14:53:00
9:53 AM,60.1,41.0,49,29.72,10.0,NW,15.0,27.6,N/A,,Partly Cloudy,320,2013-06-08 15:53:00
10:53 AM,62.1,41.0,46,29.74,10.0,NW,17.3,26.5,N/A,,Scattered Clouds,320,2013-06-08 16:53:00
11:53 AM,59.0,39.9,49,29.77,10.0,NW,13.8,28.8,0.00,Rain,Light Rain,310,2013-06-08 17:53:00
12:53 PM,64.0,39.9,41,29.75,10.0,NW,13.8,31.1,0.00,,Mostly Cloudy,320,2013-06-08 18:53:00
1:53 PM,61.0,44.1,54,29.79,10.0,WNW,11.5,16.1,0.01,,Scattered Clouds,290,2013-06-08 19:53:00
2:53 PM,60.1,36.0,41,29.81,10.0,NNW,12.7,31.1,0.00,,Mostly Cloudy,330,2013-06-08 20:53:00
3:53 PM,63.0,36.0,37,29.80,10.0,NNW,10.4,25.3,0.00,,Mostly Cloudy,340,2013-06-08 21:53:00
4:53 PM,64.0,34.0,33,29.81,10.0,NW,15.0,26.5,N/A,,Partly Cloudy,320,2013-06-08 22:53:00
5:53 PM,62.1,36.0,38,29.83,10.0,North,12.7,20.7,N/A,,Scattered Clouds,350,2013-06-08 23:53:00
6:53 PM,62.1,35.1,37,29.83,10.0,North,9.2,21.9,N/A,,Scattered Clouds,350,2013-06-09 00:53:00
7:53 PM,60.1,34.0,38,29.84,10.0,NNW,8.1,-,N/A,,Clear,330,2013-06-09 01:53:00
8:53 PM,55.9,37.0,49,29.86,10.0,North,4.6,-,N/A,,Clear,360,2013-06-09 02:53:00
9:53 PM,52.0,37.0,57,29.90,10.0,WNW,3.5,-,N/A,,Clear,290,2013-06-09 03:53:00
10:53 PM,48.9,37.0,64,29.90,10.0,WSW,3.5,-,N/A,,Clear,240,2013-06-09 04:53:00
11:53 PM,46.9,37.9,71,29.94,10.0,Calm,Calm,-,N/A,,Clear,0,2013-06-09 05:53:00